Rusk, TX

11:38 PM CST on January 20, 2017 (GMT -0600)
Jacksonville

Weather History for KJSO - November, 2012

Change the Weather History Date:

Friday, November 16, 2012

  Actual Average (KTYR) Record (KTYR)
Temperature  
Mean Temperature 48 °F -  
Max Temperature 59 °F 64 °F 87 °F (1910)
Min Temperature 37 °F 45 °F 22 °F (1970)
Degree Days  
Heating Degree Days 17    
Moisture  
Dew Point 28 °F    
Average Humidity 50    
Maximum Humidity 81    
Minimum Humidity 23    
Precipitation  
Precipitation 0.00 in - - ()
Sea Level Pressure  
Sea Level Pressure 30.36 in    
Wind  
Wind Speed 5 mph (NNE)    
Max Wind Speed 10 mph    
Max Gust Speed 17 mph    
Visibility 10 miles    
Events      
Averages and records for this station are not official NWS values.
T = Trace of Precipitation, MM = Missing Value Source: NWS Daily Summary

Daily Weather History Graph

Daily Weather History Graph

Search for Another Location

Airport or City:

Trip Planner

Search our weather history database for the weather conditions in past years. The results will help you decide how hot, cold, wet, or windy it might be!

Date:

Astronomy

Nov. 16, 2012 Rise Set
Actual Time 6:50 AM CST 5:20 PM CST
Civil Twilight 6:24 AM CST 5:46 PM CST
Nautical Twilight 5:55 AM CST 6:16 PM CST
Astronomical Twilight 5:26 AM CST 6:45 PM CST
Moon 9:43 AM CST (11/16) 8:23 PM CST (11/16)
Length of Visible Light 11h 21m
Length of Day
10h 29m
Waxing Crescent, 12% of the Moon is Illuminated
Nov 16
Waxing Crescent
Nov 20
First Quarter
Nov 28
Full
Dec 6
Last Quarter
Dec 13
New

Hourly Weather History & Observations

Time (CST) Temp. Windchill Dew Point Humidity Pressure Visibility Wind Dir Wind Speed Gust Speed Precip Events Conditions
12:15 AM 43.7 °F 42.1 °F 30.9 °F 61% 30.34 in 10.0 mi ENE 3.5 mph - N/A   Clear
12:35 AM 44.6 °F 43.1 °F 30.0 °F 57% 30.35 in 10.0 mi NE 3.5 mph - N/A   Clear
12:55 AM 43.0 °F - 31.1 °F 63% 30.35 in 10.0 mi Calm Calm - N/A   Clear
1:15 AM 43.2 °F 41.5 °F 29.8 °F 59% 30.35 in 10.0 mi NE 3.5 mph - N/A   Clear
1:35 AM 41.9 °F 39.0 °F 31.1 °F 66% 30.35 in 10.0 mi North 4.6 mph - N/A   Clear
1:55 AM 41.2 °F 39.2 °F 31.3 °F 68% 30.34 in 10.0 mi NNE 3.5 mph - N/A   Clear
2:15 AM 41.5 °F 39.6 °F 30.9 °F 66% 30.34 in 10.0 mi NE 3.5 mph - N/A   Clear
2:35 AM 41.7 °F 39.8 °F 31.8 °F 68% 30.34 in 10.0 mi North 3.5 mph - N/A   Clear
2:55 AM 40.6 °F - 32.0 °F 71% 30.34 in 10.0 mi Calm Calm - N/A   Clear
3:35 AM 40.3 °F 37.1 °F 31.6 °F 71% 30.34 in 10.0 mi NNE 4.6 mph - N/A   Clear
3:55 AM 39.7 °F 34.9 °F 32.0 °F 74% 30.34 in 10.0 mi North 6.9 mph - N/A   Clear
4:15 AM 38.5 °F 34.1 °F 32.5 °F 79% 30.34 in 10.0 mi North 5.8 mph - N/A   Clear
4:35 AM 38.1 °F 32.9 °F 32.9 °F 81% 30.35 in 10.0 mi North 6.9 mph - N/A   Clear
4:55 AM 38.3 °F 33.9 °F 32.4 °F 79% 30.35 in 10.0 mi North 5.8 mph - N/A   Clear
5:15 AM 37.8 °F 34.2 °F 32.2 °F 80% 30.35 in 10.0 mi NNE 4.6 mph - N/A   Clear
5:35 AM 38.3 °F 33.2 °F 32.2 °F 79% 30.35 in 10.0 mi NE 6.9 mph - N/A   Clear
5:55 AM 39.2 °F 34.2 °F 32.0 °F 75% 30.35 in 10.0 mi NE 6.9 mph - N/A   Clear
6:15 AM 39.6 °F 34.7 °F 31.5 °F 73% 30.36 in 10.0 mi NE 6.9 mph - N/A   Clear
6:35 AM 38.5 °F 33.4 °F 32.0 °F 78% 30.36 in 10.0 mi NE 6.9 mph - N/A   Clear
6:55 AM 37.9 °F 32.7 °F 32.0 °F 79% 30.37 in 10.0 mi NE 6.9 mph - N/A   Clear
7:15 AM 38.3 °F 33.9 °F 32.0 °F 78% 30.38 in 10.0 mi NNE 5.8 mph - N/A   Clear
7:35 AM 38.8 °F 33.8 °F 32.0 °F 76% 30.38 in 10.0 mi NNE 6.9 mph - N/A   Clear
7:55 AM 39.2 °F 35.0 °F 32.2 °F 76% 30.39 in 10.0 mi NNE 5.8 mph - N/A   Clear
8:15 AM 39.9 °F 36.7 °F 32.7 °F 75% 30.40 in 10.0 mi NNE 4.6 mph - N/A   Clear
8:35 AM 41.2 °F 38.2 °F 33.8 °F 75% 30.40 in 10.0 mi NNE 4.6 mph - N/A   Clear
8:55 AM 42.8 °F 41.1 °F 34.9 °F 74% 30.41 in 10.0 mi NNE 3.5 mph - N/A   Clear
9:15 AM 45.0 °F 41.8 °F 35.8 °F 70% 30.42 in 10.0 mi NE 5.8 mph - N/A   Clear
9:35 AM 46.2 °F 42.7 °F 36.1 °F 68% 30.42 in 10.0 mi ENE 6.9 mph - N/A   Clear
9:55 AM 47.1 °F - 35.4 °F 64% 30.42 in 10.0 mi NE 6.9 mph - N/A   Clear
10:15 AM 49.5 °F - 35.8 °F 59% 30.42 in 10.0 mi NE 5.8 mph - N/A   Clear
10:35 AM 50.9 °F - 32.4 °F 49% 30.41 in 10.0 mi NE 9.2 mph - N/A   Clear
10:55 AM 52.9 °F - 25.2 °F 34% 30.41 in 10.0 mi ENE 9.2 mph - N/A   Clear
11:15 AM 54.0 °F - 22.1 °F 29% 30.41 in 10.0 mi NNE 10.4 mph - N/A   Clear
11:35 AM 54.5 °F - 23.5 °F 30% 30.40 in 10.0 mi NE 6.9 mph 17.3 mph N/A   Clear
11:55 AM 55.6 °F - 19.8 °F 25% 30.39 in 10.0 mi NE 9.2 mph - N/A   Clear
12:15 PM 57.0 °F - 21.2 °F 25% 30.38 in 10.0 mi ENE 9.2 mph - N/A   Clear
12:35 PM 57.0 °F - 21.7 °F 26% 30.37 in 10.0 mi North 6.9 mph - N/A   Clear
12:55 PM 57.7 °F - 23.5 °F 27% 30.37 in 10.0 mi NNE 5.8 mph - N/A   Clear
1:15 PM 58.3 °F - 24.3 °F 27% 30.36 in 10.0 mi North 5.8 mph - N/A   Clear
1:35 PM 58.1 °F - 23.2 °F 26% 30.35 in 10.0 mi NNE 5.8 mph - N/A   Clear
1:55 PM 59.0 °F - 21.9 °F 24% 30.34 in 10.0 mi North 5.8 mph - N/A   Clear
2:15 PM 59.2 °F - 22.3 °F 24% 30.34 in 10.0 mi North 5.8 mph - N/A   Clear
2:35 PM 59.2 °F - 23.9 °F 26% 30.33 in 10.0 mi NE 4.6 mph - N/A   Clear
2:55 PM 59.4 °F - 23.4 °F 25% 30.33 in 10.0 mi ENE 8.1 mph - N/A   Clear
3:15 PM 59.4 °F - 23.5 °F 25% 30.33 in 10.0 mi NE 4.6 mph - N/A   Clear
3:35 PM 59.2 °F - 21.4 °F 23% 30.33 in 10.0 mi NNE 6.9 mph - N/A   Clear
3:55 PM 59.2 °F - 21.7 °F 24% 30.33 in 10.0 mi NE 6.9 mph - N/A   Clear
4:15 PM 58.8 °F - 23.5 °F 26% 30.33 in 10.0 mi NNE 3.5 mph - N/A   Clear
4:35 PM 58.1 °F - 25.0 °F 28% 30.33 in 10.0 mi NNE 4.6 mph - N/A   Clear
4:55 PM 56.7 °F - 25.7 °F 30% 30.33 in 10.0 mi NNE 3.5 mph - N/A   Clear
5:15 PM 55.2 °F - 25.7 °F 32% 30.33 in 10.0 mi NNE 3.5 mph - N/A   Clear
5:35 PM 54.3 °F - 25.3 °F 33% 30.34 in 10.0 mi NNE 3.5 mph - N/A   Clear
5:55 PM 52.9 °F - 25.0 °F 34% 30.34 in 10.0 mi NNE 4.6 mph - N/A   Clear
6:15 PM 52.9 °F - 24.8 °F 34% 30.34 in 10.0 mi NNE 4.6 mph - N/A   Clear
6:55 PM 52.0 °F - 25.3 °F 36% 30.35 in 10.0 mi NNE 3.5 mph - N/A   Clear
7:15 PM 51.8 °F - 25.7 °F 36% 30.36 in 10.0 mi Calm Calm - N/A   Clear
7:55 PM 49.8 °F - 26.4 °F 40% 30.36 in 10.0 mi Calm Calm - N/A   Clear
8:15 PM 50.0 °F - 25.7 °F 39% 30.36 in 10.0 mi NE 3.5 mph - N/A   Clear
8:35 PM 49.3 °F - 26.1 °F 40% 30.37 in 10.0 mi NE 3.5 mph - N/A   Clear
8:55 PM 49.5 °F - 25.7 °F 40% 30.37 in 10.0 mi NE 3.5 mph - N/A   Clear
9:15 PM 50.0 °F - 25.5 °F 39% 30.37 in 10.0 mi NE 3.5 mph - N/A   Clear
9:55 PM 48.6 °F - 26.2 °F 42% 30.37 in 10.0 mi NE 3.5 mph - N/A   Clear
10:15 PM 47.5 °F - 27.0 °F 45% 30.38 in 10.0 mi NE 3.5 mph - N/A   Clear
10:35 PM 47.3 °F - 26.6 °F 45% 30.38 in 10.0 mi Calm Calm - N/A   Clear
10:55 PM 47.3 °F - 26.4 °F 44% 30.38 in 10.0 mi NNE 3.5 mph - N/A   Clear
11:15 PM 46.0 °F 44.8 °F 27.0 °F 47% 30.38 in 10.0 mi NNE 3.5 mph - N/A   Clear
11:35 PM 45.5 °F - 27.5 °F 49% 30.38 in 10.0 mi Calm Calm - N/A   Clear
11:55 PM 45.3 °F 43.0 °F 28.0 °F 51% 30.38 in 10.0 mi NE 4.6 mph - N/A   Clear